Time,TemperatureF,DewpointF,PressureIn,WindDirection,WindDirectionDegrees,WindSpeedMPH,WindSpeedGustMPH,Humidity,HourlyPrecipIn,Conditions,Clouds,dailyrainin,SoftwareType,DateUTC
2013-01-19 00:04:00,71.6,62.9,30.06,East,91,0.0,0.0,74,0.00,,SCT120,0.00,VWS V14.01,2013-01-19 04:04:00,
2013-01-19 00:09:00,71.4,62.7,30.06,East,91,0.0,0.0,74,0.00,,SCT120,0.00,VWS V14.01,2013-01-19 04:09:00,
2013-01-19 00:14:00,71.4,62.7,30.06,East,91,0.0,0.0,74,0.00,,SCT120,0.00,VWS V14.01,2013-01-19 04:14:00,
2013-01-19 00:19:00,71.4,62.7,30.06,East,91,0.0,0.0,74,0.00,,SCT120,0.00,VWS V14.01,2013-01-19 04:19:00,
2013-01-19 00:24:00,71.2,62.9,30.06,East,90,0.0,0.0,75,0.00,,SCT120,0.00,VWS V14.01,2013-01-19 04:24:00,
2013-01-19 00:29:00,71.2,62.9,30.06,East,91,0.0,0.0,75,0.00,,SCT120,0.00,VWS V14.01,2013-01-19 04:29:00,
2013-01-19 00:34:00,71.4,63.1,30.06,East,91,0.0,0.0,75,0.00,,SCT120,0.00,VWS V14.01,2013-01-19 04:34:00,
2013-01-19 00:39:00,71.4,63.1,30.06,East,91,0.0,0.0,75,0.00,,SCT120,0.00,VWS V14.01,2013-01-19 04:39:00,
2013-01-19 00:44:00,71.1,62.7,30.06,East,91,0.0,0.0,75,0.00,,SCT120,0.00,VWS V14.01,2013-01-19 04:44:00,
2013-01-19 00:49:00,71.1,62.7,30.06,East,90,0.0,0.0,75,0.00,,SCT120,0.00,VWS V14.01,2013-01-19 04:49:00,
2013-01-19 00:54:00,70.9,62.6,30.06,East,90,0.0,0.0,75,0.00,,SCT120,0.00,VWS V14.01,2013-01-19 04:54:00,
2013-01-19 00:59:00,70.9,62.6,30.06,East,90,0.0,0.0,75,0.00,,SCT120,0.00,VWS V14.01,2013-01-19 04:59:00,
2013-01-19 01:00:00,70.9,62.6,30.06,East,90,0.0,0.0,75,0.00,,SCT120,0.00,VWS V14.01,2013-01-19 05:00:00,
2013-01-19 01:02:00,70.7,62.4,30.06,East,90,0.0,0.0,75,0.00,,SCT120,0.00,VWS V14.01,2013-01-19 05:02:00,
2013-01-19 01:03:00,70.7,62.4,30.06,East,90,0.0,0.0,75,0.00,,SCT120,0.00,VWS V14.01,2013-01-19 05:03:00,
2013-01-19 01:08:00,70.5,62.6,30.06,East,90,0.0,0.0,76,0.00,,SCT120,0.00,VWS V14.01,2013-01-19 05:08:00,
2013-01-19 01:13:00,70.5,62.6,30.06,East,90,0.0,0.0,76,0.00,,SCT120,0.00,VWS V14.01,2013-01-19 05:13:00,
2013-01-19 01:18:00,70.5,63.0,30.06,East,90,0.0,0.0,77,0.00,,SCT120,0.00,VWS V14.01,2013-01-19 05:18:00,
2013-01-19 01:23:00,70.5,63.0,30.03,East,91,0.0,0.0,77,0.00,,SCT120,0.00,VWS V14.01,2013-01-19 05:23:00,
2013-01-19 01:28:00,70.5,63.0,30.03,East,90,0.0,0.0,77,0.00,,SCT120,0.00,VWS V14.01,2013-01-19 05:28:00,
2013-01-19 01:33:00,70.3,62.8,30.03,East,90,0.0,0.0,77,0.00,,SCT120,0.00,VWS V14.01,2013-01-19 05:33:00,
2013-01-19 01:38:00,70.3,62.8,30.03,East,90,0.0,0.0,77,0.00,,SCT120,0.00,VWS V14.01,2013-01-19 05:38:00,
2013-01-19 01:43:00,70.2,62.6,30.03,East,90,0.0,0.0,77,0.00,,SCT120,0.00,VWS V14.01,2013-01-19 05:43:00,
2013-01-19 01:48:00,70.2,62.6,30.03,East,90,0.0,0.0,77,0.00,,SCT120,0.00,VWS V14.01,2013-01-19 05:48:00,
2013-01-19 01:53:00,70.0,62.5,30.03,East,90,0.0,0.0,77,0.00,,SCT120,0.00,VWS V14.01,2013-01-19 05:53:00,
2013-01-19 01:58:00,70.0,62.5,30.03,East,90,0.0,0.0,77,0.00,,SCT120,0.00,VWS V14.01,2013-01-19 05:58:00,
2013-01-19 02:03:00,69.8,62.3,30.03,East,90,0.0,0.0,77,0.00,,SCT120,0.00,VWS V14.01,2013-01-19 06:03:00,
2013-01-19 02:08:00,69.8,62.3,30.03,East,90,0.0,0.0,77,0.00,,SCT120,0.00,VWS V14.01,2013-01-19 06:08:00,
2013-01-19 02:13:00,69.6,62.5,30.03,East,90,0.0,0.0,78,0.00,,SCT120,0.00,VWS V14.01,2013-01-19 06:13:00,
2013-01-19 02:18:00,69.6,62.5,30.03,East,90,0.0,0.0,78,0.00,,SCT120,0.00,VWS V14.01,2013-01-19 06:18:00,
2013-01-19 02:23:00,69.6,62.5,30.03,East,90,0.0,0.0,78,0.00,,SCT120,0.00,VWS V14.01,2013-01-19 06:23:00,
2013-01-19 02:28:00,69.4,62.7,30.03,East,90,0.0,0.0,79,0.00,,SCT120,0.00,VWS V14.01,2013-01-19 06:28:00,
2013-01-19 02:33:00,69.6,62.8,30.03,East,90,0.0,0.0,79,0.00,,SCT120,0.00,VWS V14.01,2013-01-19 06:33:00,
2013-01-19 02:38:00,69.4,62.7,30.00,East,91,0.0,0.0,79,0.00,,SCT120,0.00,VWS V14.01,2013-01-19 06:38:00,
2013-01-19 02:43:00,69.4,63.0,30.00,East,91,0.0,0.0,80,0.00,,SCT120,0.00,VWS V14.01,2013-01-19 06:43:00,
2013-01-19 02:48:00,69.4,63.0,30.00,East,90,0.0,0.0,80,0.00,,SCT120,0.00,VWS V14.01,2013-01-19 06:48:00,
2013-01-19 02:53:00,69.3,62.8,30.00,East,91,0.0,0.0,80,0.00,,SCT120,0.00,VWS V14.01,2013-01-19 06:53:00,
2013-01-19 02:58:00,69.3,63.2,30.00,East,90,0.0,0.0,81,0.00,,SCT120,0.00,VWS V14.01,2013-01-19 06:58:00,
2013-01-19 03:03:00,69.3,63.2,30.00,East,90,0.0,0.0,81,0.00,,SCT120,0.00,VWS V14.01,2013-01-19 07:03:00,
2013-01-19 03:08:00,69.1,63.0,30.00,East,91,0.0,0.0,81,0.00,,SCT120,0.00,VWS V14.01,2013-01-19 07:08:00,
2013-01-19 03:13:00,69.1,63.0,30.00,East,90,0.0,0.0,81,0.00,,SCT120,0.00,VWS V14.01,2013-01-19 07:13:00,
2013-01-19 03:18:00,68.9,62.8,30.00,East,90,0.0,0.0,81,0.00,,SCT120,0.00,VWS V14.01,2013-01-19 07:18:00,
2013-01-19 03:23:00,68.9,62.8,30.00,East,90,0.0,0.0,81,0.00,,SCT120,0.00,VWS V14.01,2013-01-19 07:23:00,
2013-01-19 03:28:00,68.7,62.7,30.00,East,90,0.0,0.0,81,0.00,,SCT120,0.00,VWS V14.01,2013-01-19 07:28:00,
2013-01-19 03:33:00,68.7,62.7,30.00,East,90,0.0,0.0,81,0.00,,SCT120,0.00,VWS V14.01,2013-01-19 07:33:00,
2013-01-19 03:38:00,68.7,62.7,30.00,East,90,0.0,0.0,81,0.00,,SCT120,0.00,VWS V14.01,2013-01-19 07:38:00,
2013-01-19 03:43:00,68.7,62.7,30.00,East,91,0.0,0.0,81,0.00,,SCT120,0.00,VWS V14.01,2013-01-19 07:43:00,
2013-01-19 03:48:00,68.7,62.7,30.00,East,90,0.0,0.0,81,0.00,,SCT120,0.00,VWS V14.01,2013-01-19 07:48:00,
2013-01-19 03:53:00,68.7,62.7,30.00,East,90,0.0,0.0,81,0.00,,SCT120,0.00,VWS V14.01,2013-01-19 07:53:00,
2013-01-19 03:59:00,68.7,62.7,30.00,East,90,0.0,0.0,81,0.00,,SCT120,0.00,VWS V14.01,2013-01-19 07:59:00,
2013-01-19 04:03:00,68.7,62.7,30.00,East,91,0.0,0.0,81,0.00,,SCT120,0.00,VWS V14.01,2013-01-19 08:03:00,
2013-01-19 04:09:00,68.7,63.0,30.00,East,90,0.0,0.0,82,0.00,,SCT120,0.00,VWS V14.01,2013-01-19 08:09:00,
2013-01-19 04:14:00,68.5,62.8,30.00,East,90,0.0,0.0,82,0.00,,SCT120,0.00,VWS V14.01,2013-01-19 08:14:00,
2013-01-19 04:19:00,68.5,62.8,30.00,East,91,0.0,0.0,82,0.00,,SCT120,0.00,VWS V14.01,2013-01-19 08:19:00,
2013-01-19 04:24:00,68.5,62.8,30.00,East,91,0.0,0.0,82,0.00,,SCT120,0.00,VWS V14.01,2013-01-19 08:24:00,
2013-01-19 04:29:00,68.5,62.8,30.00,East,91,0.0,0.0,82,0.00,,SCT120,0.00,VWS V14.01,2013-01-19 08:29:00,
2013-01-19 04:34:00,68.5,62.8,30.00,East,91,0.0,0.0,82,0.00,,SCT120,0.00,VWS V14.01,2013-01-19 08:34:00,
2013-01-19 04:39:00,68.4,62.7,30.00,East,91,0.0,0.0,82,0.00,,SCT120,0.00,VWS V14.01,2013-01-19 08:39:00,
2013-01-19 04:44:00,68.2,62.5,30.00,East,91,0.0,0.0,82,0.00,,SCT120,0.00,VWS V14.01,2013-01-19 08:44:00,
2013-01-19 04:49:00,68.2,62.5,30.00,East,91,0.0,0.0,82,0.00,,SCT120,0.00,VWS V14.01,2013-01-19 08:49:00,
2013-01-19 04:53:00,68.2,62.5,30.00,East,91,0.0,0.0,82,0.00,,SCT120,0.00,VWS V14.01,2013-01-19 08:53:00,
2013-01-19 04:59:00,68.2,62.5,30.00,East,91,0.0,0.0,82,0.00,,SCT120,0.00,VWS V14.01,2013-01-19 08:59:00,
2013-01-19 05:04:00,68.2,62.5,30.00,East,90,0.0,0.0,82,0.00,,SCT120,0.00,VWS V14.01,2013-01-19 09:04:00,
2013-01-19 05:09:00,68.0,62.3,30.00,East,90,0.0,0.0,82,0.00,,SCT120,0.00,VWS V14.01,2013-01-19 09:09:00,
2013-01-19 05:14:00,68.0,62.3,30.00,East,91,0.0,0.0,82,0.00,,SCT120,0.00,VWS V14.01,2013-01-19 09:14:00,
2013-01-19 05:19:00,67.8,62.1,30.00,East,91,0.0,0.0,82,0.00,,SCT120,0.00,VWS V14.01,2013-01-19 09:19:00,
2013-01-19 05:24:00,68.0,62.3,30.00,East,91,0.0,0.0,82,0.00,,SCT120,0.00,VWS V14.01,2013-01-19 09:24:00,
2013-01-19 05:29:00,67.8,62.5,30.00,East,91,0.0,0.0,83,0.00,,SCT120,0.00,VWS V14.01,2013-01-19 09:29:00,
2013-01-19 05:34:00,67.8,62.5,30.00,East,90,0.0,0.0,83,0.00,,SCT120,0.00,VWS V14.01,2013-01-19 09:34:00,
2013-01-19 05:39:00,67.8,62.5,30.00,East,90,0.0,0.0,83,0.00,,SCT120,0.00,VWS V14.01,2013-01-19 09:39:00,
2013-01-19 05:43:00,67.8,62.5,30.00,East,90,0.0,0.0,83,0.00,,SCT120,0.00,VWS V14.01,2013-01-19 09:43:00,
2013-01-19 05:49:00,68.0,62.7,30.00,East,91,0.0,0.0,83,0.00,,SCT120,0.00,VWS V14.01,2013-01-19 09:49:00,
2013-01-19 05:54:00,67.6,62.3,30.00,East,91,0.0,0.0,83,0.00,,SCT120,0.00,VWS V14.01,2013-01-19 09:54:00,
2013-01-19 05:59:00,67.6,62.3,30.00,East,91,0.0,0.0,83,0.00,,SCT120,0.00,VWS V14.01,2013-01-19 09:59:00,
2013-01-19 06:04:00,67.5,62.1,30.00,East,91,0.0,0.0,83,0.00,,SCT120,0.00,VWS V14.01,2013-01-19 10:04:00,
2013-01-19 06:09:00,67.5,62.1,30.03,East,91,0.0,0.0,83,0.00,,SCT120,0.00,VWS V14.01,2013-01-19 10:09:00,
2013-01-19 06:14:00,67.5,62.1,30.03,East,91,0.0,0.0,83,0.00,,SCT120,0.00,VWS V14.01,2013-01-19 10:14:00,
2013-01-19 06:19:00,67.6,62.3,30.03,East,91,0.0,0.0,83,0.00,,SCT120,0.00,VWS V14.01,2013-01-19 10:19:00,
2013-01-19 06:24:00,67.6,62.3,30.03,East,91,0.0,0.0,83,0.00,,SCT120,0.00,VWS V14.01,2013-01-19 10:24:00,
2013-01-19 06:29:00,67.5,62.1,30.03,East,91,0.0,0.0,83,0.00,,SCT120,0.00,VWS V14.01,2013-01-19 10:29:00,
2013-01-19 06:34:00,67.6,62.6,30.03,East,91,0.0,0.0,84,0.00,,SCT120,0.00,VWS V14.01,2013-01-19 10:34:00,
2013-01-19 06:39:00,67.6,62.6,30.03,East,91,0.0,0.0,84,0.00,,SCT120,0.00,VWS V14.01,2013-01-19 10:39:00,
2013-01-19 06:44:00,67.6,62.6,30.03,East,91,0.0,0.0,84,0.00,,SCT120,0.00,VWS V14.01,2013-01-19 10:44:00,
2013-01-19 06:49:00,67.6,62.6,30.03,East,91,0.0,0.0,84,0.00,,SCT120,0.00,VWS V14.01,2013-01-19 10:49:00,
2013-01-19 06:54:00,67.6,62.6,30.03,East,91,0.0,0.0,84,0.00,,SCT120,0.00,VWS V14.01,2013-01-19 10:54:00,
2013-01-19 06:59:00,67.5,62.5,30.03,East,91,0.0,0.0,84,0.00,,SCT120,0.00,VWS V14.01,2013-01-19 10:59:00,
2013-01-19 07:04:00,67.5,62.5,30.03,East,91,0.0,0.0,84,0.00,,SCT120,0.00,VWS V14.01,2013-01-19 11:04:00,
2013-01-19 07:09:00,67.6,62.6,30.03,East,91,0.0,0.0,84,0.00,,SCT120,0.00,VWS V14.01,2013-01-19 11:09:00,
2013-01-19 07:14:00,67.6,62.6,30.03,East,91,0.0,0.0,84,0.00,,SCT120,0.00,VWS V14.01,2013-01-19 11:14:00,
2013-01-19 08:47:00,70.3,65.6,30.06,ESE,107,0.0,2.2,85,0.00,,SCT120,0.00,VWS V14.01,2013-01-19 12:47:00,
2013-01-19 08:48:00,70.3,65.6,30.06,ESE,107,0.0,2.2,85,0.00,,SCT120,0.00,VWS V14.01,2013-01-19 12:48:00,
2013-01-19 08:53:00,70.7,66.3,30.06,ESE,107,0.0,2.2,86,0.00,,SCT120,0.00,VWS V14.01,2013-01-19 12:53:00,
2013-01-19 08:58:00,71.2,66.8,30.06,East,96,2.2,2.2,86,0.00,,SCT120,0.00,VWS V14.01,2013-01-19 12:58:00,
2013-01-19 09:03:00,71.8,67.0,30.06,SSE,162,3.1,3.1,85,0.00,,SCT120,0.00,VWS V14.01,2013-01-19 13:03:00,
2013-01-19 09:08:00,72.1,67.4,30.09,East,99,0.0,3.1,85,0.00,,SCT120,0.00,VWS V14.01,2013-01-19 13:08:00,
2013-01-19 09:13:00,72.5,67.4,30.09,SSE,152,3.6,4.0,84,0.00,,SCT120,0.00,VWS V14.01,2013-01-19 13:13:00,
2013-01-19 09:18:00,72.7,67.2,30.09,SSE,152,3.6,4.0,83,0.00,,SCT120,0.00,VWS V14.01,2013-01-19 13:18:00,
2013-01-19 09:23:00,73.0,67.6,30.09,SSE,162,2.7,3.6,83,0.00,,SCT120,0.00,VWS V14.01,2013-01-19 13:23:00,
2013-01-19 09:28:00,73.6,67.4,30.09,SSE,162,2.7,3.6,81,0.00,,SCT120,0.00,VWS V14.01,2013-01-19 13:28:00,
2013-01-19 09:33:00,73.9,67.4,30.09,SSE,158,0.0,3.6,80,0.00,,SCT120,0.00,VWS V14.01,2013-01-19 13:33:00,
2013-01-19 09:38:00,73.9,66.7,30.09,East,96,2.2,3.6,78,0.00,,SCT120,0.00,VWS V14.01,2013-01-19 13:38:00,
2013-01-19 09:43:00,74.5,66.4,30.09,East,96,2.2,2.2,76,0.00,,SCT120,0.00,VWS V14.01,2013-01-19 13:43:00,
2013-01-19 09:48:00,74.8,66.8,30.09,East,96,2.2,2.2,76,0.00,,SCT120,0.00,VWS V14.01,2013-01-19 13:48:00,
2013-01-19 09:53:00,75.2,66.3,30.09,East,89,0.0,2.2,74,0.00,,SCT120,0.00,VWS V14.01,2013-01-19 13:53:00,
2013-01-19 09:58:00,75.6,63.0,30.09,East,87,2.7,3.1,65,0.00,,SCT120,0.00,VWS V14.01,2013-01-19 13:58:00,
2013-01-19 10:03:00,77.4,60.5,30.09,East,100,3.1,5.4,56,0.00,,SCT120,0.00,VWS V14.01,2013-01-19 14:03:00,
2013-01-19 10:08:00,78.4,57.7,30.09,ENE,65,4.0,5.4,49,0.00,,SCT120,0.00,VWS V14.01,2013-01-19 14:08:00,
2013-01-19 10:13:00,79.3,53.6,30.09,ESE,110,6.3,6.3,41,0.00,,SCT120,0.00,VWS V14.01,2013-01-19 14:13:00,
2013-01-19 10:18:00,79.7,49.7,30.09,East,92,5.4,7.6,35,0.00,,SCT120,0.00,VWS V14.01,2013-01-19 14:18:00,
2013-01-19 10:23:00,80.1,47.6,30.09,SSE,148,5.4,8.1,32,0.00,,SCT120,0.00,VWS V14.01,2013-01-19 14:23:00,
2013-01-19 10:28:00,79.7,46.4,30.09,East,84,5.4,9.2,31,0.00,,SCT120,0.00,VWS V14.01,2013-01-19 14:28:00,
2013-01-19 10:33:00,79.3,47.0,30.09,South,189,3.1,9.2,32,0.00,,SCT120,0.00,VWS V14.01,2013-01-19 14:33:00,
2013-01-19 10:38:00,80.1,47.6,30.09,NE,42,3.6,9.2,32,0.00,,SCT120,0.00,VWS V14.01,2013-01-19 14:38:00,
2013-01-19 10:43:00,80.2,46.9,30.09,NNE,12,8.3,8.3,31,0.00,,SCT120,0.00,VWS V14.01,2013-01-19 14:43:00,
2013-01-19 10:48:00,79.5,46.3,30.09,ENE,66,2.2,8.3,31,0.00,,SCT120,0.00,VWS V14.01,2013-01-19 14:48:00,
2013-01-19 10:53:00,79.0,46.6,30.09,East,88,5.8,8.7,32,0.00,,SCT120,0.00,VWS V14.01,2013-01-19 14:53:00,
2013-01-19 10:58:00,78.8,46.5,30.09,ENE,75,5.4,8.7,32,0.00,,SCT120,0.00,VWS V14.01,2013-01-19 14:58:00,
2013-01-19 11:03:00,79.7,47.3,30.09,ENE,65,5.4,8.1,32,0.00,,SCT120,0.00,VWS V14.01,2013-01-19 15:03:00,
2013-01-19 11:08:00,79.9,46.6,30.06,East,93,6.3,12.8,31,0.00,,SCT120,0.00,VWS V14.01,2013-01-19 15:08:00,
2013-01-19 11:13:00,79.9,47.4,30.06,SSE,157,3.1,12.8,32,0.00,,SCT120,0.00,VWS V14.01,2013-01-19 15:13:00,
2013-01-19 11:18:00,79.7,47.3,30.06,SE,136,2.7,12.8,32,0.00,,SCT120,0.00,VWS V14.01,2013-01-19 15:18:00,
2013-01-19 11:23:00,79.3,47.0,30.06,ENE,69,5.8,8.1,32,0.00,,SCT120,0.00,VWS V14.01,2013-01-19 15:23:00,
2013-01-19 11:28:00,79.2,46.8,30.06,NNE,27,2.7,8.1,32,0.00,,SCT120,0.00,VWS V14.01,2013-01-19 15:28:00,
2013-01-19 11:33:00,78.8,46.5,30.06,East,88,2.7,8.7,32,0.00,,SCT120,0.00,VWS V14.01,2013-01-19 15:33:00,
2013-01-19 11:38:00,79.3,47.8,30.06,SE,127,3.6,8.7,33,0.00,,SCT120,0.00,VWS V14.01,2013-01-19 15:38:00,
2013-01-19 11:43:00,80.2,46.9,30.06,East,97,3.1,8.1,31,0.00,,SCT120,0.00,VWS V14.01,2013-01-19 15:43:00,
2013-01-19 11:48:00,79.9,45.7,30.06,NE,34,3.6,8.1,30,0.00,,SCT120,0.00,VWS V14.01,2013-01-19 15:48:00,
2013-01-19 11:53:00,80.2,46.9,30.06,ENE,75,3.6,8.1,31,0.00,,SCT120,0.00,VWS V14.01,2013-01-19 15:53:00,
2013-01-19 11:58:00,80.4,46.2,30.06,ESE,114,10.1,10.1,30,0.00,,SCT120,0.00,VWS V14.01,2013-01-19 15:58:00,
2013-01-19 12:03:00,80.6,46.3,30.06,East,81,7.6,10.1,30,0.00,,SCT120,0.00,VWS V14.01,2013-01-19 16:03:00,
2013-01-19 12:08:00,80.2,47.7,30.06,East,98,3.6,10.1,32,0.00,,SCT120,0.00,VWS V14.01,2013-01-19 16:08:00,
2013-01-19 12:13:00,80.2,46.9,30.06,ESE,109,4.0,10.1,31,0.00,,SCT120,0.00,VWS V14.01,2013-01-19 16:13:00,
2013-01-19 12:18:00,80.8,46.5,30.06,ESE,114,4.0,10.1,30,0.00,,SCT120,0.00,VWS V14.01,2013-01-19 16:18:00,
2013-01-19 12:23:00,81.3,47.0,30.06,ESE,105,3.1,5.4,30,0.00,,SCT120,0.00,VWS V14.01,2013-01-19 16:23:00,
2013-01-19 12:28:00,81.5,47.1,30.06,ENE,74,3.6,6.3,30,0.00,,SCT120,0.00,VWS V14.01,2013-01-19 16:28:00,
2013-01-19 12:33:00,81.5,47.1,30.06,ENE,78,3.6,6.3,30,0.00,,SCT120,0.00,VWS V14.01,2013-01-19 16:33:00,
2013-01-19 12:38:00,82.4,47.9,30.03,East,84,2.7,6.3,30,0.00,,SCT120,0.00,VWS V14.01,2013-01-19 16:38:00,
2013-01-19 12:43:00,83.8,43.2,30.03,SE,129,10.5,10.5,24,0.00,,SCT120,0.00,VWS V14.01,2013-01-19 16:43:00,
2013-01-19 12:48:00,83.8,41.0,30.03,ESE,115,5.4,10.5,22,0.00,,SCT120,0.00,VWS V14.01,2013-01-19 16:48:00,
2013-01-19 12:53:00,83.5,40.7,30.03,East,88,6.3,10.5,22,0.00,,SCT120,0.00,VWS V14.01,2013-01-19 16:53:00,
2013-01-19 12:58:00,82.8,42.3,30.03,ENE,60,6.3,10.5,24,0.00,,SCT120,0.00,VWS V14.01,2013-01-19 16:58:00,
2013-01-19 13:03:00,82.8,42.3,30.03,ESE,116,4.0,6.3,24,0.00,,SCT120,0.00,VWS V14.01,2013-01-19 17:03:00,
2013-01-19 13:08:00,82.9,43.5,30.03,East,79,5.4,8.3,25,0.00,,SCT120,0.00,VWS V14.01,2013-01-19 17:08:00,
2013-01-19 13:13:00,82.6,43.2,30.03,ESE,111,2.7,8.3,25,0.00,,SCT120,0.00,VWS V14.01,2013-01-19 17:13:00,
2013-01-19 13:18:00,83.7,43.1,30.03,SE,136,4.0,8.3,24,0.00,,SCT120,0.00,VWS V14.01,2013-01-19 17:18:00,
2013-01-19 13:23:00,82.4,40.9,30.00,ENE,62,3.1,5.4,23,0.00,,SCT120,0.00,VWS V14.01,2013-01-19 17:23:00,
2013-01-19 13:28:00,82.4,40.9,30.00,East,93,4.0,5.4,23,0.00,,SCT120,0.00,VWS V14.01,2013-01-19 17:28:00,
2013-01-19 13:33:00,82.9,41.4,30.00,SE,129,3.6,5.4,23,0.00,,SCT120,0.00,VWS V14.01,2013-01-19 17:33:00,
2013-01-19 13:38:00,84.2,42.4,30.00,ESE,106,6.7,6.7,23,0.00,,SCT120,0.00,VWS V14.01,2013-01-19 17:38:00,
2013-01-19 13:43:00,83.8,41.0,30.00,NE,43,8.3,8.3,22,0.00,,SCT120,0.00,VWS V14.01,2013-01-19 17:43:00,
2013-01-19 13:48:00,84.0,45.5,30.00,ESE,105,3.1,8.3,26,0.00,,SCT120,0.00,VWS V14.01,2013-01-19 17:48:00,
2013-01-19 13:53:00,83.8,44.3,30.00,ENE,76,8.3,8.3,25,0.00,,SCT120,0.00,VWS V14.01,2013-01-19 17:53:00,
2013-01-19 13:58:00,82.8,47.3,30.00,SE,132,7.6,8.3,29,0.00,,SCT120,0.00,VWS V14.01,2013-01-19 17:58:00,
2013-01-19 14:03:00,81.7,45.4,30.00,SE,132,7.6,7.6,28,0.00,,SCT120,0.00,VWS V14.01,2013-01-19 18:03:00,
2013-01-19 14:09:00,82.9,46.5,29.97,SE,132,7.6,7.6,28,0.00,,SCT120,0.00,VWS V14.01,2013-01-19 18:09:00,
2013-01-19 14:14:00,84.2,40.1,29.97,SE,132,7.6,7.6,21,0.00,,SCT120,0.00,VWS V14.01,2013-01-19 18:14:00,
2013-01-19 14:19:00,84.4,40.2,29.97,SE,132,7.6,7.6,21,0.00,,SCT120,0.00,VWS V14.01,2013-01-19 18:19:00,
2013-01-19 14:24:00,84.4,40.2,29.97,SE,132,7.6,7.6,21,0.00,,SCT120,0.00,VWS V14.01,2013-01-19 18:24:00,
2013-01-19 14:29:00,85.1,38.2,29.97,ENE,74,6.3,8.3,19,0.00,,SCT120,0.00,VWS V14.01,2013-01-19 18:29:00,
2013-01-19 14:34:00,85.3,39.7,29.97,NE,56,4.0,8.3,20,0.00,,SCT120,0.00,VWS V14.01,2013-01-19 18:34:00,
2013-01-19 14:39:00,85.8,40.2,29.97,East,84,5.8,5.8,20,0.00,,SCT120,0.00,VWS V14.01,2013-01-19 18:39:00,
2013-01-19 14:44:00,86.4,39.3,29.97,East,97,8.3,8.3,19,0.00,,SCT120,0.00,VWS V14.01,2013-01-19 18:44:00,
2013-01-19 14:49:00,86.2,41.7,29.97,East,97,8.3,8.3,21,0.00,,SCT120,0.00,VWS V14.01,2013-01-19 18:49:00,
2013-01-19 14:54:00,86.4,37.9,29.97,WSW,245,3.6,8.3,18,0.00,,SCT120,0.00,VWS V14.01,2013-01-19 18:54:00,
2013-01-19 14:59:00,85.5,39.9,29.97,NE,47,8.3,8.3,20,0.00,,SCT120,0.00,VWS V14.01,2013-01-19 18:59:00,
2013-01-19 15:04:00,84.4,40.2,29.97,ENE,57,4.0,9.2,21,0.00,,SCT120,0.00,VWS V14.01,2013-01-19 19:04:00,
2013-01-19 15:09:00,84.4,40.2,29.97,ESE,123,3.1,9.2,21,0.00,,SCT120,0.00,VWS V14.01,2013-01-19 19:09:00,
2013-01-19 15:14:00,84.9,40.7,29.97,NE,47,4.9,9.2,21,0.00,,SCT120,0.00,VWS V14.01,2013-01-19 19:14:00,
2013-01-19 15:20:00,85.1,39.6,29.97,ESE,116,4.0,4.0,20,0.00,,SCT120,0.00,VWS V14.01,2013-01-19 19:20:00,
2013-01-19 15:25:00,85.5,39.9,29.97,East,82,6.3,6.3,20,0.00,,SCT120,0.00,VWS V14.01,2013-01-19 19:25:00,
2013-01-19 15:30:00,86.0,40.3,29.97,ESE,110,10.1,10.1,20,0.00,,SCT120,0.00,VWS V14.01,2013-01-19 19:30:00,
2013-01-19 15:35:00,86.2,40.5,29.97,ENE,64,3.1,10.1,20,0.00,,SCT120,0.00,VWS V14.01,2013-01-19 19:35:00,
2013-01-19 15:40:00,85.6,41.3,29.97,NE,56,9.6,9.6,21,0.00,,SCT120,0.00,VWS V14.01,2013-01-19 19:40:00,
2013-01-19 15:45:00,84.7,40.5,29.97,NE,38,4.5,9.6,21,0.00,,SCT120,0.00,VWS V14.01,2013-01-19 19:45:00,
2013-01-19 15:50:00,83.7,45.2,29.97,NE,38,3.1,9.6,26,0.00,,SCT120,0.00,VWS V14.01,2013-01-19 19:50:00,
2013-01-19 15:55:00,84.2,49.4,29.97,ESE,114,3.1,9.6,30,0.00,,SCT120,0.00,VWS V14.01,2013-01-19 19:55:00,
2013-01-19 16:00:00,84.0,51.0,29.97,ESE,103,5.4,8.1,32,0.00,,SCT120,0.00,VWS V14.01,2013-01-19 20:00:00,
2013-01-19 16:06:00,83.5,50.5,29.97,ENE,69,8.7,8.7,32,0.00,,SCT120,0.00,VWS V14.01,2013-01-19 20:06:00,
2013-01-19 16:11:00,83.1,49.4,29.97,NE,47,5.8,8.7,31,0.00,,SCT120,0.00,VWS V14.01,2013-01-19 20:11:00,
2013-01-19 16:16:00,82.8,49.1,29.97,NE,38,5.4,8.7,31,0.00,,SCT120,0.00,VWS V14.01,2013-01-19 20:16:00,
2013-01-19 16:21:00,82.8,48.2,29.97,ENE,75,4.0,8.3,30,0.00,,SCT120,0.00,VWS V14.01,2013-01-19 20:21:00,
2013-01-19 16:27:00,81.9,47.4,29.97,ENE,69,8.3,8.3,30,0.00,,SCT120,0.00,VWS V14.01,2013-01-19 20:27:00,
2013-01-19 16:32:00,81.0,47.5,29.97,ENE,73,8.3,8.3,31,0.00,,SCT120,0.00,VWS V14.01,2013-01-19 20:32:00,
2013-01-19 16:37:00,80.8,47.4,29.97,East,88,7.6,8.3,31,0.00,,SCT120,0.00,VWS V14.01,2013-01-19 20:37:00,
2013-01-19 16:42:00,81.0,47.5,29.97,ESE,116,3.6,6.3,31,0.00,,SCT120,0.00,VWS V14.01,2013-01-19 20:42:00,
2013-01-19 16:47:00,81.3,47.8,29.97,ESE,116,3.6,6.3,31,0.00,,SCT120,0.00,VWS V14.01,2013-01-19 20:47:00,
2013-01-19 16:52:00,81.3,47.8,29.97,East,99,5.8,6.3,31,0.00,,SCT120,0.00,VWS V14.01,2013-01-19 20:52:00,
2013-01-19 16:58:00,81.3,47.0,29.97,East,99,5.8,6.3,30,0.00,,SCT120,0.00,VWS V14.01,2013-01-19 20:58:00,
2013-01-19 17:03:00,81.5,47.1,29.97,ESE,114,6.3,6.3,30,0.00,,SCT120,0.00,VWS V14.01,2013-01-19 21:03:00,
2013-01-19 17:08:00,81.1,46.8,29.97,ENE,62,4.9,6.3,30,0.00,,SCT120,0.00,VWS V14.01,2013-01-19 21:08:00,
2013-01-19 17:13:00,80.8,46.5,29.97,ENE,62,4.9,6.3,30,0.00,,SCT120,0.00,VWS V14.01,2013-01-19 21:13:00,
2013-01-19 17:19:00,80.8,46.5,29.97,ENE,62,4.9,6.3,30,0.00,,SCT120,0.00,VWS V14.01,2013-01-19 21:19:00,
2013-01-19 17:24:00,81.0,47.5,29.97,ENE,62,4.9,4.9,31,0.00,,SCT120,0.00,VWS V14.01,2013-01-19 21:24:00,
2013-01-19 17:29:00,80.8,46.5,29.97,East,93,2.7,4.9,30,0.00,,SCT120,0.00,VWS V14.01,2013-01-19 21:29:00,
2013-01-19 17:34:00,80.8,46.5,29.97,East,93,2.7,4.9,30,0.00,,SCT120,0.00,VWS V14.01,2013-01-19 21:34:00,
2013-01-19 17:39:00,80.6,46.3,29.97,East,95,4.0,4.9,30,0.00,,SCT120,0.00,VWS V14.01,2013-01-19 21:39:00,
2013-01-19 17:44:00,80.4,47.0,29.97,East,95,4.0,4.0,31,0.00,,SCT120,0.00,VWS V14.01,2013-01-19 21:44:00,
2013-01-19 17:50:00,80.2,46.9,29.97,East,95,4.0,4.0,31,0.00,,SCT120,0.00,VWS V14.01,2013-01-19 21:50:00,
2013-01-19 17:55:00,80.1,46.7,30.00,East,95,4.0,4.0,31,0.00,,SCT120,0.00,VWS V14.01,2013-01-19 21:55:00,
2013-01-19 18:00:00,79.9,46.6,30.00,East,95,4.0,4.0,31,0.00,,SCT120,0.00,VWS V14.01,2013-01-19 22:00:00,
2013-01-19 18:05:00,79.9,46.6,30.00,ENE,68,5.4,5.4,31,0.00,,SCT120,0.00,VWS V14.01,2013-01-19 22:05:00,
2013-01-19 18:10:00,79.9,46.6,30.00,ENE,68,5.4,5.4,31,0.00,,SCT120,0.00,VWS V14.01,2013-01-19 22:10:00,
2013-01-19 18:15:00,79.9,46.6,30.00,ENE,68,5.4,5.4,31,0.00,,SCT120,0.00,VWS V14.01,2013-01-19 22:15:00,
2013-01-19 18:22:00,79.9,46.6,29.97,ENE,68,5.4,5.4,31,0.00,,SCT120,0.00,VWS V14.01,2013-01-19 22:22:00,
2013-01-19 18:27:00,79.7,46.4,29.97,SE,126,3.6,5.4,31,0.00,,SCT120,0.00,VWS V14.01,2013-01-19 22:27:00,
2013-01-19 18:32:00,79.7,47.3,29.97,SE,126,3.6,5.4,32,0.00,,SCT120,0.00,VWS V14.01,2013-01-19 22:32:00,
2013-01-19 18:37:00,79.5,47.1,30.00,SE,126,3.6,5.4,32,0.00,,SCT120,0.00,VWS V14.01,2013-01-19 22:37:00,
2013-01-19 18:42:00,79.5,47.1,30.00,SE,126,3.6,3.6,32,0.00,,SCT120,0.00,VWS V14.01,2013-01-19 22:42:00,
2013-01-19 18:47:00,79.5,47.1,30.00,SE,126,3.6,3.6,32,0.00,,SCT120,0.00,VWS V14.01,2013-01-19 22:47:00,
2013-01-19 18:52:00,79.5,47.1,30.00,SE,126,3.6,3.6,32,0.00,,SCT120,0.00,VWS V14.01,2013-01-19 22:52:00,
2013-01-19 18:57:00,79.5,47.9,30.00,SE,126,3.6,3.6,33,0.00,,SCT120,0.00,VWS V14.01,2013-01-19 22:57:00,
2013-01-19 19:02:00,79.5,47.9,30.00,SE,126,3.6,3.6,33,0.00,,SCT120,0.00,VWS V14.01,2013-01-19 23:02:00,
2013-01-19 19:07:00,79.5,47.9,30.00,SE,126,3.6,3.6,33,0.00,,SCT120,0.00,VWS V14.01,2013-01-19 23:07:00,
2013-01-19 19:12:00,79.3,47.8,30.00,SE,126,3.6,3.6,33,0.00,,SCT120,0.00,VWS V14.01,2013-01-19 23:12:00,
2013-01-19 19:17:00,79.2,48.4,30.00,SE,126,3.6,3.6,34,0.00,,SCT120,0.00,VWS V14.01,2013-01-19 23:17:00,
2013-01-19 19:22:00,79.2,48.4,30.00,SE,126,3.6,3.6,34,0.00,,SCT120,0.00,VWS V14.01,2013-01-19 23:22:00,
2013-01-19 19:27:00,79.2,48.4,30.00,SE,126,3.6,3.6,34,0.00,,SCT120,0.00,VWS V14.01,2013-01-19 23:27:00,
2013-01-19 19:32:00,79.2,49.2,30.00,SE,126,3.6,3.6,35,0.00,,SCT120,0.00,VWS V14.01,2013-01-19 23:32:00,
2013-01-19 19:37:00,79.2,49.2,30.00,SE,126,3.6,3.6,35,0.00,,SCT120,0.00,VWS V14.01,2013-01-19 23:37:00,
2013-01-19 19:43:00,79.2,49.2,30.00,SE,126,3.6,3.6,35,0.00,,SCT120,0.00,VWS V14.01,2013-01-19 23:43:00,
2013-01-19 19:48:00,79.2,49.2,30.00,SE,126,3.6,3.6,35,0.00,,SCT120,0.00,VWS V14.01,2013-01-19 23:48:00,
2013-01-19 19:53:00,79.0,49.8,30.00,SE,126,3.6,3.6,36,0.00,,SCT120,0.00,VWS V14.01,2013-01-19 23:53:00,
2013-01-19 19:59:00,79.0,49.8,30.00,SE,126,3.6,3.6,36,0.00,,SCT120,0.00,VWS V14.01,2013-01-19 23:59:00,
2013-01-19 20:04:00,79.0,49.8,30.00,SE,126,3.6,3.6,36,0.00,,SCT120,0.00,VWS V14.01,2013-01-20 00:04:00,
2013-01-19 20:44:00,77.9,51.7,30.03,ESE,112,0.0,0.0,40,0.00,,SCT120,0.00,VWS V14.01,2013-01-20 00:44:00,
2013-01-19 20:49:00,77.9,51.7,30.03,ESE,112,0.0,0.0,40,0.00,,SCT120,0.00,VWS V14.01,2013-01-20 00:49:00,
2013-01-19 20:54:00,77.9,52.3,30.03,ESE,111,0.0,0.0,41,0.00,,SCT120,0.00,VWS V14.01,2013-01-20 00:54:00,
2013-01-19 20:59:00,77.9,52.3,30.03,ESE,111,0.0,0.0,41,0.00,,SCT120,0.00,VWS V14.01,2013-01-20 00:59:00,
2013-01-19 21:04:00,78.1,52.5,30.03,ESE,111,0.0,0.0,41,0.00,,SCT120,0.00,VWS V14.01,2013-01-20 01:04:00,
2013-01-19 21:09:00,78.1,52.5,30.03,SSE,155,0.0,0.0,41,0.00,,SCT120,0.00,VWS V14.01,2013-01-20 01:09:00,
2013-01-19 21:14:00,77.9,52.3,30.03,SSE,155,0.0,0.0,41,0.00,,SCT120,0.00,VWS V14.01,2013-01-20 01:14:00,
2013-01-19 21:19:00,77.7,52.8,30.03,SSE,155,0.0,0.0,42,0.00,,SCT120,0.00,VWS V14.01,2013-01-20 01:19:00,
2013-01-19 21:24:00,77.5,52.7,30.03,SSE,156,0.0,0.0,42,0.00,,SCT120,0.00,VWS V14.01,2013-01-20 01:24:00,
2013-01-19 21:29:00,77.5,53.3,30.03,SSE,157,0.0,0.0,43,0.00,,SCT120,0.00,VWS V14.01,2013-01-20 01:29:00,
2013-01-19 21:34:00,77.4,53.8,30.03,SSE,156,0.0,0.0,44,0.00,,SCT120,0.00,VWS V14.01,2013-01-20 01:34:00,
2013-01-19 21:39:00,77.4,53.8,30.03,SSE,156,0.0,0.0,44,0.00,,SCT120,0.00,VWS V14.01,2013-01-20 01:39:00,
2013-01-19 21:44:00,77.4,53.8,30.03,ESE,112,0.0,0.0,44,0.00,,SCT120,0.00,VWS V14.01,2013-01-20 01:44:00,
2013-01-19 21:49:00,77.2,54.2,30.03,ESE,111,0.0,0.0,45,0.00,,SCT120,0.00,VWS V14.01,2013-01-20 01:49:00,
2013-01-19 21:54:00,77.0,55.8,30.03,SE,138,0.0,0.0,48,0.00,,SCT120,0.00,VWS V14.01,2013-01-20 01:54:00,
2013-01-19 22:00:00,76.8,60.0,30.03,SE,127,0.0,0.0,56,0.00,,SCT120,0.00,VWS V14.01,2013-01-20 02:00:00,
2013-01-19 22:05:00,76.6,61.2,30.03,SE,125,0.0,2.7,59,0.00,,SCT120,0.00,VWS V14.01,2013-01-20 02:05:00,
2013-01-19 22:10:00,76.5,61.6,30.03,East,89,0.0,2.7,60,0.00,,SCT120,0.00,VWS V14.01,2013-01-20 02:10:00,
2013-01-19 22:15:00,76.5,62.0,30.03,East,95,0.0,2.7,61,0.00,,SCT120,0.00,VWS V14.01,2013-01-20 02:15:00,
2013-01-19 22:20:00,76.5,63.4,30.03,SSE,151,0.0,0.0,64,0.00,,SCT120,0.00,VWS V14.01,2013-01-20 02:20:00,
2013-01-19 22:26:00,76.3,63.7,30.03,SSE,150,0.0,2.2,65,0.00,,SCT120,0.00,VWS V14.01,2013-01-20 02:26:00,
2013-01-19 22:31:00,76.1,63.9,30.03,SSE,150,0.0,2.2,66,0.00,,SCT120,0.00,VWS V14.01,2013-01-20 02:31:00,
2013-01-19 22:36:00,76.1,64.4,30.03,SSE,150,0.0,2.2,67,0.00,,SCT120,0.00,VWS V14.01,2013-01-20 02:36:00,
2013-01-19 22:41:00,76.1,64.8,30.03,SSE,150,0.0,0.0,68,0.00,,SCT120,0.00,VWS V14.01,2013-01-20 02:41:00,
2013-01-19 22:46:00,76.1,64.8,30.03,SSE,150,0.0,0.0,68,0.00,,SCT120,0.00,VWS V14.01,2013-01-20 02:46:00,
2013-01-19 22:51:00,76.1,64.8,30.03,SSE,150,0.0,0.0,68,0.00,,SCT120,0.00,VWS V14.01,2013-01-20 02:51:00,
2013-01-19 22:56:00,76.1,65.2,30.03,SSE,150,0.0,0.0,69,0.00,,SCT120,0.00,VWS V14.01,2013-01-20 02:56:00,
2013-01-19 23:02:00,75.9,65.0,30.03,SSE,151,0.0,0.0,69,0.00,,SCT120,0.00,VWS V14.01,2013-01-20 03:02:00,
2013-01-19 23:07:00,75.7,64.9,30.03,SSE,150,0.0,0.0,69,0.00,,SCT120,0.00,VWS V14.01,2013-01-20 03:07:00,
2013-01-19 23:12:00,75.4,64.5,30.03,SSE,150,0.0,0.0,69,0.00,,SCT120,0.00,VWS V14.01,2013-01-20 03:12:00,
2013-01-19 23:17:00,75.2,64.8,30.03,SSE,150,0.0,0.0,70,0.00,,SCT120,0.00,VWS V14.01,2013-01-20 03:17:00,
2013-01-19 23:22:00,75.0,65.0,30.03,SSE,150,0.0,0.0,71,0.00,,SCT120,0.00,VWS V14.01,2013-01-20 03:22:00,
2013-01-19 23:27:00,75.0,65.4,30.03,SSE,150,0.0,0.0,72,0.00,,SCT120,0.00,VWS V14.01,2013-01-20 03:27:00,
2013-01-19 23:32:00,74.8,65.2,30.03,SSE,150,0.0,0.0,72,0.00,,SCT120,0.00,VWS V14.01,2013-01-20 03:32:00,
2013-01-19 23:37:00,74.7,65.0,30.03,SSE,150,0.0,0.0,72,0.00,,SCT120,0.00,VWS V14.01,2013-01-20 03:37:00,
2013-01-19 23:43:00,74.7,65.4,30.03,SSE,150,0.0,0.0,73,0.00,,SCT120,0.00,VWS V14.01,2013-01-20 03:43:00,
2013-01-19 23:48:00,74.5,65.3,30.03,SSE,150,0.0,0.0,73,0.00,,SCT120,0.00,VWS V14.01,2013-01-20 03:48:00,
2013-01-19 23:53:00,74.3,65.5,30.00,SSE,150,0.0,0.0,74,0.00,,SCT120,0.00,VWS V14.01,2013-01-20 03:53:00,
2013-01-19 23:58:00,74.3,65.5,30.00,SSE,150,0.0,0.0,74,0.00,,SCT120,0.00,VWS V14.01,2013-01-20 03:58:00,